Powrót do katalogu

CZ-6A DEB

AktywnyPO
NORAD 60762·DEBRIS·🇨🇳 China

Wystrzelony Aug 6, 2024 z Taiyuan Satellite Launch Center

Loading…

Następne Przeloty (najbliższe 24 godziny)

TLE

ŚwieżeSource: Space-Track

Epoka: Sep 14, 2026, 10:37 UTC

1 60762U 24140EM  26257.44244056  .00000827  00000-0  19141-3 0  9999
2 60762  89.0252 262.9572 0101540 340.1161  19.6099 14.51087712110573

Śledź CZ-6A DEB w czasie rzeczywistym z AllMySat

Download on the App Store